Theta_e
340 338 336 333 333 335 335 338 338 338 337 340 340 339 339 336 332 333 334 335 334 337 337 337 334 332 334 332 332 333 334 336
339 337 335 333 333 334 334 335 337 335 337 338 339 338 337 337 335 333 334 336 336 336 339 339 337 338 337 336 336 335 334 333
338 333 334 333 331 333 334 334 332 335 332 336 337 336 333 335 334 334 334 335 336 337 338 339 339 338 339 339 339 339 338 336
339 337 336 335 334 332 333 334 331 332 329 332 331 332 332 329 333 334 334 335 335 336 338 340 341 340 339 338 339 339 339 337
340 340 339 339 337 335 332 330 331 325 326 327 332 332 332 329 331 335 336 336 336 337 339 341 342 341 338 337 338 339 338 336
340 340 340 340 340 338 335 330 329 324 325 327 330 331 331 330 328 328 335 336 335 336 340 341 341 340 342 342 341 338 338 336
340 340 339 339 340 340 337 331 330 323 323 326 327 328 327 330 329 329 329 332 333 336 340 341 340 342 342 342 341 339 337 336
339 338 338 338 339 339 338 336 331 328 325 325 330 331 327 327 328 329 331 333 335 337 340 339 339 343 343 342 340 339 337 337
340 339 338 337 336 337 337 336 336 334 332 330 330 330 331 331 330 328 330 332 334 335 339 339 339 342 344 344 340 337 336 337
342 341 340 339 337 335 334 335 335 335 334 332 331 333 333 334 335 332 331 330 332 336 337 339 340 342 344 342 338 337 337 336
343 341 341 340 338 336 335 334 332 333 333 334 334 334 333 334 333 334 333 332 332 333 336 337 341 340 343 341 339 338 337 336
338 339 340 340 339 337 336 335 333 332 331 333 334 334 335 335 335 336 336 333 333 334 336 339 339 340 341 341 340 337 334 335
340 339 338 336 335 336 335 333 332 331 331 331 334 335 336 337 337 337 335 335 335 336 336 337 341 340 341 341 340 336 334 335
341 342 343 344 343 336 332 334 336 334 333 333 334 335 337 337 338 338 335 333 333 334 335 337 335 334 339 340 339 336 336 337
345 345 344 344 344 344 343 334 334 334 335 335 335 336 337 338 340 340 340 338 336 335 336 335 333 334 338 338 339 337 337 336
341 341 342 343 343 343 344 345 338 335 335 336 337 338 338 338 339 340 341 338 338 337 337 338 336 337 335 337 337 337 336 337
341 339 339 340 340 340 339 341 338 338 338 339 340 339 337 336 334 332 331 331 333 333 335 338 337 335 334 333 334 336 336 333
340 338 337 340 339 338 337 337 337 338 338 338 337 336 335 332 332 333 332 334 335 334 335 335 334 334 334 333 333 333 332 329
339 338 335 340 341 339 337 335 335 335 335 335 334 333 333 334 331 332 334 334 333 333 333 332 332 332 330 329 329 326 323 321
338 338 338 337 338 337 337 337 335 336 336 336 335 334 333 333 333 334 333 332 331 330 329 330 330 328 324 322 318 318 318 318
Wind_Speed
22 22 23 25 22 19 20 19 18 18 15 15 14 13 13 14 15 13 9 7 5 4 4 4 4 5 5 4 4 3 4 5
22 22 23 23 24 22 21 21 21 21 16 16 15 14 15 15 16 16 13 11 9 7 6 6 5 5 5 6 5 5 5 6
22 23 22 21 22 24 24 24 25 22 22 17 17 17 18 17 18 18 16 15 12 10 10 9 8 7 7 6 6 6 6 7
21 21 21 22 21 24 24 25 25 23 25 22 21 20 19 20 21 21 19 16 16 14 12 10 10 10 10 9 8 8 6 7
23 24 23 24 24 20 26 27 25 28 28 26 21 20 19 21 22 23 22 20 19 17 13 12 12 12 14 13 12 11 9 8
24 24 25 23 22 22 23 23 25 29 28 25 23 20 21 22 23 24 26 24 22 19 16 15 14 15 12 12 11 10 12 10
24 24 24 23 23 21 22 25 25 29 30 27 25 23 24 22 23 24 26 25 24 23 19 18 19 14 14 14 14 13 12 13
25 25 24 22 21 22 23 25 27 27 27 28 22 21 26 26 25 25 27 27 26 24 21 24 23 16 17 15 14 12 12 13
17 21 22 22 21 22 27 28 35 33 26 21 22 26 25 27 30 32 32 31 28 26 23 26 25 21 20 13 10 11 13 15
10 13 18 23 26 31 31 32 31 36 28 26 21 16 21 23 25 34 35 33 31 27 28 27 25 21 19 16 18 11 16 17
12 13 16 18 21 28 31 36 35 36 36 29 24 19 17 18 28 33 33 35 32 30 31 31 25 27 24 27 25 19 14 17
12 12 15 20 23 27 32 36 36 39 40 35 31 29 27 30 25 21 23 30 30 29 28 27 29 31 31 31 26 21 20 20
9 8 9 12 15 17 22 31 33 36 35 35 30 30 26 22 16 17 21 21 24 22 24 24 19 23 30 33 26 23 21 23
12 13 12 13 14 10 9 12 16 22 26 28 27 25 23 16 12 11 14 19 21 22 22 19 14 18 27 26 24 25 22 24
15 15 17 17 18 17 13 6 10 14 17 18 20 21 19 17 13 10 10 12 15 18 18 18 19 24 26 20 20 33 24 21
14 15 17 20 22 21 19 13 6 2 5 9 11 12 11 10 8 7 7 8 4 7 10 12 14 13 13 21 20 17 12 12
13 16 17 17 18 20 19 18 11 7 5 5 6 7 8 8 8 6 5 5 11 11 9 6 3 5 6 14 8 5 3 4
12 14 17 17 18 19 23 20 19 17 15 12 9 9 10 9 3 2 5 6 6 9 9 4 4 4 4 2 6 7 12 11
11 13 15 16 18 19 19 22 23 22 21 17 13 10 5 6 5 3 7 9 8 9 13 17 20 18 18 24 24 24 23 19
9 12 14 15 18 17 19 19 20 18 14 11 9 6 8 8 7 9 16 20 23 23 23 24 23 22 19 23 21 19 15 16
Wind_Direction
180 188 191 192 195 197 198 195 192 191 190 192 191 191 191 191 188 187 188 191 193 181 172 162 157 156 151 159 169 198 231 233
187 193 195 195 197 199 200 201 199 199 198 200 200 197 196 197 199 198 200 204 207 212 215 211 206 209 196 195 203 215 230 238
194 197 198 199 203 204 205 202 202 203 206 205 205 206 205 204 205 207 209 213 221 225 233 236 237 241 243 233 225 228 240 248
194 201 202 204 207 209 207 208 208 206 210 213 213 213 213 212 211 214 216 223 232 237 241 245 250 248 249 250 255 255 245 240
202 205 207 209 211 209 210 211 212 214 215 218 219 221 220 220 221 223 224 231 237 238 246 253 257 257 254 258 257 258 254 245
211 212 215 217 217 214 216 211 216 221 221 221 223 226 224 227 227 228 230 234 240 245 248 254 260 262 257 256 259 252 241 240
218 219 221 223 224 221 221 221 218 224 225 227 228 230 231 232 234 232 234 237 240 244 248 257 264 266 259 262 256 253 245 245
217 221 226 232 232 232 234 231 228 231 227 230 231 233 237 236 237 237 239 239 240 243 248 255 259 253 254 257 253 257 263 272
221 224 225 232 237 235 239 235 236 231 225 222 230 231 231 233 235 237 237 239 242 244 246 250 252 244 243 246 242 267 285 292
245 223 219 223 228 236 237 240 237 237 230 228 225 232 236 235 239 240 241 240 241 241 241 245 244 240 235 230 240 240 264 271
256 241 229 227 229 234 237 242 241 242 234 229 229 228 235 239 237 242 243 242 243 246 246 246 245 243 232 237 235 232 235 256
278 256 245 242 237 242 244 244 240 241 237 223 220 220 221 230 238 244 238 243 244 243 247 247 253 253 239 241 232 216 229 231
354 343 322 301 292 262 248 250 237 240 231 224 221 224 234 238 238 237 243 249 246 245 246 253 261 269 265 255 233 220 235 244
29 28 22 16 11 352 280 245 235 236 231 229 219 225 227 231 233 233 239 239 238 236 238 241 254 269 265 254 238 234 243 239
33 27 25 24 21 12 5 321 240 231 224 222 220 221 219 220 223 234 231 233 239 246 247 251 265 259 245 260 260 259 232 242
33 30 26 26 24 19 13 356 328 255 207 210 213 203 201 207 219 228 228 231 293 349 321 299 280 271 304 279 280 254 276 259
33 31 28 28 27 25 29 33 50 69 100 134 158 181 180 164 159 147 160 321 334 344 352 339 261 291 285 288 284 265 109 87
41 40 35 39 41 42 52 58 64 74 81 81 95 113 128 133 127 324 346 3 7 8 4 353 335 318 346 69 68 81 110 90
39 37 35 44 48 46 53 61 68 75 80 79 87 97 70 13 22 32 11 16 25 66 81 82 80 79 86 85 84 87 88 94
38 41 39 42 46 37 41 44 54 60 64 60 61 51 60 69 63 77 85 88 91 87 83 80 79 85 85 88 89 94 97 93